User: anonymous   Login
Location: Byszew
(52.1813°N, 19.2693°E)
Time: 23:46:00
(UTC+00:00)
Language:

Cosmos 1805 Rocket - Orbit

View from above orbital plane
View from above orbital plane
View from above satellite
View from above satellite

Ground track
Ground track

The orbit data is extracted from the following two-line orbital elements,

1 17192U 86097B   21129.22705006  .00000081  00000-0  68320-5 0  9990
2 17192  82.5081   1.7099 0018538  93.3162  44.3313 14.83644065838425
Epoch (UTC): 09 May 2021 05:26:57
Eccentricity: 0.0018538
inclination: 82.5081°
perigee height: 605 km
apogee height: 631 km
right ascension of ascending node: 1.7099°
argument of perigee: 93.3162°
revolutions per day: 14.83644065
mean anomaly at epoch: 44.3313°
orbit number at epoch: 83842

The dashed part of the orbit path shows where the satellite is in the earth's shadow,  

DLR